SL-14 DEB, 45301

Orbit data source: Space-Track

SL-14 DEB, 45301 is space debris in LEO originally from a launch on Thu, 15 Aug 1991 UTC launched from the Plesetsk Missile And Space Complex (PKMTR). Debris objects in space refer to the collection of defunct objects orbiting the Earth. Examples of debris include non-operational satellites, rocket bodies, and fragments generated from explosions, collisions, or faulty payload assembly.

Loading next visibility...
Identifier
45301, 1991-056AP
Orbit
LEO
Last TLE update
16 hours ago
Origin
Manufacturer
Unknown
Mission
Spacecraft
Bus & Motor
Unknown
Mass
Unknown
Launch date (UTC)
1991-08-15 (34 years ago)
Launch vehicle
Unknown
Launch site
Plesetsk Missile And Space Complex (PKMTR)
Object type
Payload
Rocket body
Debris
Shape & HBR
Unknown
Radar Cross Section
Medium (>0.1 m² and <1 m²)

Expand to show TLE details & history

TLE from 16 hours ago
0 SL-14 DEB
1 45301U 91056AP  25181.77077370  .00009490  00000-0  11808-1 0  9990
2 45301  82.4885 291.3201 0161056 257.6309 100.6770 13.59244793265156
Epoch: 2025-06-30T18:29Z
TLE epoch observation values (Epoch: 2025-06-30T18:29:54.847Z)
Latitude
-0.00005°
Longitude
94.76576°
Altitude
1,065.288 km
Speed
7.308 km/s
True Right ascension
19h 25m 16s
True Declination
0° 00' 00"
Sunlit
Object was in full shadow at epoch
Visualization orbit readout
Latitude
-75.80848°
Longitude
63.02474°
Altitude
958.353 km
Speed
7.425 km/s
Apparent Right ascension
11h 05m 54s
Apparent Declination
-68° 13' 38"
Sunlit
Object is in full shadow
Visualization observer readout
Local Sidereal Time
21:39:38
Azimuth
195.524° SSW
Elevation
-59.368°
Doppler factor
1
Orbital elements
Apogee altitude
1,155.028 km
Perigee altitude
916.222 km
Semi-major axis
7,413.762 km
Eccentricity
0.01611
Inclination
82.4885°
RAAN
291.3201°
Arg. of periapsis
257.6309°
True anomaly
Unknown
Mean anomaly
100.677°
Eccentric anomaly
Unknown
Mean motion
3.40005 °/min
Orbital period
105.88 mins
BSTAR
0.011808
Loading maneuver chart data...
Loading SW <> Apogee altitude chart data...
Loading historical data...
Loading historical data...
Loading historical data...
Loading historical data...
Loading historical data...
Loading historical data...
Loading historical data...

SL-14 DEB Visibility forecast

Observer location: undefined°, undefined°

Span
Click to sort rows by Start time (UTC) header in descending order
Start Az.
Max El. time (UTC)
Max El. Az.
Max El.
End time (UTC)
End Az.
11 mins2025-07-01 18:03:15.308Z12.783° NNE2025-07-01 18:09:15.308Z73.22° E26.075°2025-07-01 18:14:15.308Z126.951° SE
11 mins2025-07-01 19:51:15.308Z334.829° NNW2025-07-01 19:56:15.308Z266.964° W35.861°2025-07-01 20:02:15.308Z199.836° SSW
12 mins2025-07-02 07:42:15.308Z174.18° S2025-07-02 07:48:15.308Z71.166° E43.045°2025-07-02 07:54:15.308Z12.955° NNE
8 mins2025-07-02 09:32:15.308Z260.825° W2025-07-02 09:35:15.308Z291.822° WNW19.483°2025-07-02 09:40:15.308Z337.87° N
|